Location: Augirein
(42.9320°N, 0.9181°E)
Time: 00:27:20
(UTC+00:00)

Cosmos 405 Rocket - Visible Passes

Search period start: 24 October 2021 00:00
Search period end: 03 November 2021 00:00
Orbit: 488 x 552 km, 81.3° (Epoch: 23 October)

Date Brightness Start Highest point End Pass type
(mag) Time Alt. Az. Time Alt. Az. Time Alt. Az.
24 Oct 5.0 18:21:50 10° NNW 18:25:19 28° W 18:28:47 10° SSW visible
25 Oct 4.8 18:08:05 10° NNW 18:11:42 33° W 18:15:19 10° SSW visible
26 Oct 4.5 17:54:21 10° NNW 17:58:04 37° W 18:01:49 10° SSW visible
27 Oct 4.2 17:40:37 10° NNW 17:44:27 43° W 17:48:17 10° SSW visible
28 Oct 3.8 05:56:38 10° S 06:00:15 50° E 06:03:59 10° NNE visible
28 Oct 3.9 17:26:55 10° NNW 17:30:49 50° W 17:34:44 10° S visible
29 Oct 4.1 05:43:03 10° SSE 05:46:37 43° E 05:50:17 10° NNE visible
30 Oct 4.4 05:29:29 10° SSE 05:32:59 37° E 05:36:33 10° NNE visible
31 Oct 4.7 05:15:58 10° SSE 05:19:20 32° E 05:22:49 10° NNE visible
01 Nov 4.9 05:02:26 10° SSE 05:05:42 28° E 05:09:03 10° NNE visible
02 Nov 5.2 04:48:57 10° SSE 04:52:04 25° E 04:55:16 10° NE visible
